sat.trackr.live / text

‹ back to catalog

2024-105B

NORAD 59918 · 2024-105B

PAYLOAD ACTIVE UNKNOWN

§ Identity

Operator
Country
PRC
Launch date
2024-05-30
Launch site
JSC
Launch vehicle
Mass (kg)
RCS (m²)

External: N2YO · Heavens-Above · Gunter

§ Orbital elements

Epoch: 2026-09-22T23:52:27.505056Z

Period
94.72 min
Inclination
97.5802°
Eccentricity
0.0010054
Mean motion
15.20193431 rev/d
Perigee alt
498.3 km
Apogee alt
512.2 km
Semi-major
6,883.4 km
B*
1.6077e-4
RAAN
281.8912°
Arg perigee
263.9527°
Mean anomaly
96.0562°
Rev number
12,790

§ Raw data

2024-105B1 59918U 24105B   26265.99476279  .00003414  00000+0  16077-3 0  99932 59918  97.5802 281.8912 0010054 263.9527  96.0562 15.20193431127906

JSON: /api/v1/satellites/59918 · /tle

For live sub-satellite position, see the globe view (requires WebGL).

§ Visibility from observer

Set your observer location to see the next 7 days of passes ≥ 10°. The values pass through the URL so the page stays shareable.

No JS? Fill the form by hand. The geolocation button needs JavaScript.

§ Radio — SatNOGS DB

ModeDescriptionDownlinkUplink
FSK TLM 400.150 MHz
FM Telemetry 401.250 MHz

2 transmitters · refreshed weekly from db.satnogs.org